Weather History for LEMO - November, 2013

Change the Weather History Date:

Wednesday, November 13, 2013

  Actual Average Record
Temperature  
Mean Temperature 62 °F -  
Max Temperature 75 °F 63 °F 78 °F (2011)
Min Temperature 48 °F 45 °F 37 °F (2001)
Degree Days  
Heating Degree Days 4    
Growing Degree Days 12 (Base 50)    
Moisture  
Dew Point 48 °F    
Average Humidity 62    
Maximum Humidity 87    
Minimum Humidity 36    
Precipitation  
Precipitation 0.00 in - - ()
Sea Level Pressure  
Sea Level Pressure 30.08 in    
Wind  
Wind Speed 4 mph ()    
Max Wind Speed 13 mph    
Max Gust Speed -    
Visibility 6.2 miles    
Events      
Averages and records for this station are not official NWS values.
T = Trace of Precipitation, MM = Missing Value Source: Averaged Metar Reports

Daily Weather History Graph

Daily Weather History Graph

Search for Another Location

Airport or City:

Trip Planner

Search our weather history database for the weather conditions in past years. The results will help you decide how hot, cold, wet, or windy it might be!

Date:

Astronomy

Nov. 13, 2013 Rise Set
Actual Time 7:59 AM CET 6:13 PM CET
Civil Twilight 7:31 AM CET 6:41 PM CET
Nautical Twilight 7:00 AM CET 7:12 PM CET
Astronomical Twilight 6:29 AM CET 7:43 PM CET
Moon 3:48 PM CET (11/13) 3:43 AM CET (11/13)
Length of Visible Light 11h 09m
Length of Day
10h 14m
Waxing Gibbous, 82% of the Moon is Illuminated
Nov 13
Waxing Gibbous
Nov 17
Full
Nov 25
Last Quarter
Dec 3
New
Dec 9
First Quarter

Hourly Weather History & Observations

Time (CET) Temp. Dew Point Humidity Pressure Visibility Wind Dir Wind Speed Gust Speed Precip Events Conditions
12:00 AM 57.2 °F 44.6 °F 63% 30.09 in - Variable 2.3 mph - N/A   Clear
2:00 AM 55.4 °F 44.6 °F 67% 30.09 in - South 4.6 mph - N/A   Clear
3:00 AM 53.6 °F 44.6 °F 72% 30.06 in - South 4.6 mph - N/A   Clear
4:00 AM 51.8 °F 44.6 °F 76% 30.06 in - Variable 1.2 mph - N/A   Clear
5:00 AM 48.2 °F 44.6 °F 87% 30.06 in - Variable 2.3 mph - N/A   Clear
6:00 AM 48.2 °F 44.6 °F 87% 30.06 in - Variable 2.3 mph - N/A   Clear
7:00 AM 50.0 °F 44.6 °F 82% 30.06 in - Calm Calm - N/A   Clear
8:00 AM 48.2 °F 44.6 °F 87% 30.06 in - SE 4.6 mph - N/A   Clear
9:00 AM 51.8 °F 46.4 °F 82% 30.12 in - Variable 2.3 mph - N/A   Clear
10:00 AM 59.0 °F 48.2 °F 67% 30.12 in - Variable 1.2 mph - N/A   Clear
11:00 AM 68.0 °F 48.2 °F 49% 30.09 in - East 3.5 mph - N/A   Clear
12:00 PM 71.6 °F 46.4 °F 41% 30.09 in - Calm Calm - N/A   Clear
1:00 PM 73.4 °F 50.0 °F 44% 30.06 in - Variable 2.3 mph - N/A   Clear
2:00 PM 75.2 °F 48.2 °F 38% 30.06 in - North 3.5 mph - N/A   Clear
3:00 PM 75.2 °F 46.4 °F 36% 30.04 in 6.2 mi Variable 2.3 mph - N/A   Partly Cloudy
4:00 PM 73.4 °F 48.2 °F 41% 30.04 in 6.2 mi North 10.4 mph - N/A   Scattered Clouds
5:00 PM 73.4 °F 50.0 °F 44% 30.04 in 6.2 mi North 6.9 mph - N/A   Partly Cloudy
6:00 PM 69.8 °F 48.2 °F 46% 30.06 in 6.2 mi NE 11.5 mph - N/A   Partly Cloudy
7:00 PM 68.0 °F 50.0 °F 52% 30.06 in 6.2 mi East 9.2 mph - N/A   Partly Cloudy
8:00 PM 66.2 °F 50.0 °F 56% 30.09 in - ENE 9.2 mph - N/A   Clear
9:00 PM 64.4 °F 51.8 °F 64% 30.09 in - NE 10.4 mph - N/A   Clear
10:00 PM 62.6 °F 53.6 °F 72% 30.12 in - ENE 12.7 mph - N/A   Clear
11:00 PM 60.8 °F 53.6 °F 77% 30.12 in - ENE 3.5 mph - N/A   Clear